GW3043 Weather Reports


time (UTC)temp
C
wind
direction
speed
KPH
gust
KPH
rain 1hr
cm
rain 24hr
cm
rain mn
cm
humidity
%
barometer
mb
20260504174549 20 98 1.6 14.5 0.00 0.00 0.00 34 1008.2
20260504173057 21 101 1.6 16.1 0.00 0.00 0.00 34 1008.2
20260504171547 21 169 4.8 11.3 0.00 0.00 0.00 32 1008.1
20260504081553 6 0 0.0 3.2 0.00 0.00 0.00 63 1010.7
20260504070111 7 0 0.0 3.2 0.00 0.00 0.00 61 1010.4
20260504044550 7 261 0.0 4.8 0.00 0.00 0.00 58 1011.1
20260504043058 7 0 0.0 3.2 0.00 0.00 0.00 57 1011.1
20260504041547 7 0 0.0 4.8 0.00 0.00 0.00 55 1011.1
20260504040120 7 261 0.0 3.2 0.00 0.00 0.00 55 1011.0
20260504034547 7 261 0.0 4.8 0.00 0.00 0.00 56 1010.9
20260504033050 7 0 0.0 3.2 0.00 0.00 0.00 55 1010.9
20260504031556 7 0 0.0 1.6 0.00 0.00 0.00 53 1010.6
20260504030048 7 0 0.0 1.6 0.00 0.00 0.00 52 1010.7
20260504024551 7 0 0.0 1.6 0.00 0.00 0.00 50 1010.7
20260504023052 8 0 0.0 4.8 0.00 0.00 0.00 47 1010.7
20260504021552 8 0 0.0 4.8 0.00 0.00 0.00 45 1010.6
20260504020107 8 0 0.0 3.2 0.00 0.00 0.00 44 1010.5
20260504014552 8 0 0.0 3.2 0.00 0.00 0.00 44 1010.4
20260504013046 8 0 0.0 4.8 0.00 0.00 0.00 44 1010.2
20260504011549 8 0 0.0 4.8 0.00 0.00 0.00 42 1010.1
20260504010053 8 0 0.0 4.8 0.00 0.00 0.00 45 1009.8
20260504004549 8 0 0.0 3.2 0.00 0.00 0.00 48 1009.5
20260504003054 8 0 0.0 3.2 0.00 0.00 0.00 49 1009.4
20260504001552 8 0 0.0 4.8 0.00 0.00 0.00 50 1009.1
20260504000053 8 0 0.0 0.0 0.00 0.00 0.00 46 1009.0
20260503234603 9 0 0.0 1.6 0.00 0.00 0.00 45 1009.0
20260503233051 10 0 0.0 3.2 0.00 0.00 0.00 44 1008.9
20260503231548 10 0 0.0 1.6 0.00 0.00 0.00 43 1008.8
20260503230047 10 0 0.0 4.8 0.00 0.00 0.00 45 1008.8
20260503224543 10 0 1.6 12.9 0.00 0.00 0.00 43 1008.8
20260503223050 10 0 3.2 9.7 0.00 0.00 0.00 43 1008.7
20260503221556 10 155 1.6 9.7 0.00 0.00 0.00 44 1008.7
20260503220051 10 0 0.0 11.3 0.00 0.00 0.00 41 1008.8
20260503214545 11 215 3.2 11.3 0.00 0.00 0.00 42 1008.8
20260503213049 12 140 3.2 12.9 0.00 0.00 0.00 39 1008.8
20260503211548 12 0 1.6 11.3 0.00 0.00 0.00 41 1008.7
20260503210050 12 52 4.8 14.5 0.00 0.00 0.00 40 1008.4
20260503204546 11 172 4.8 14.5 0.00 0.00 0.00 42 1008.3
20260503203057 10 211 4.8 14.5 0.00 0.00 0.00 41 1008.4
20260503201555 10 94 1.6 14.5 0.00 0.00 0.00 42 1008.3
20260503200056 10 79 3.2 12.9 0.00 0.00 0.00 43 1008.3
20260503194600 10 187 4.8 12.9 0.00 0.00 0.00 43 1008.4
20260503193059 10 40 3.2 9.7 0.00 0.00 0.00 44 1008.5
20260503191555 10 42 3.2 9.7 0.00 0.00 0.00 43 1008.6
20260503190054 10 202 3.2 11.3 0.00 0.00 0.00 44 1008.5
20260503184557 10 242 4.8 17.7 0.00 0.00 0.00 44 1008.3
20260503183051 10 265 3.2 12.9 0.00 0.00 0.00 45 1008.3
20260503181557 10 181 4.8 16.1 0.00 0.00 0.00 45 1008.4
20260503180106 10 241 4.8 12.9 0.00 0.00 0.00 44 1008.4